| time (UTC) | temp F | wind direction | speed MPH | gust MPH | rain 1hr in | rain 24hr in | rain mn in | humidity % | barometer mb |
| 20260503192227 | 68 | 309 | 7.0 | 14.0 | 0.00 | 0.00 | 0.00 | 41 | 1016.9 |
| 20260503191727 | 67 | 230 | 9.0 | 13.0 | 0.00 | 0.00 | 0.00 | 42 | 1016.9 |
| 20260503191228 | 68 | 327 | 9.0 | 20.0 | 0.00 | 0.00 | 0.00 | 41 | 1017.3 |
| 20260503190727 | 66 | 345 | 13.0 | 20.0 | 0.00 | 0.00 | 0.00 | 41 | 1017.3 |
| 20260503190228 | 68 | 271 | 7.0 | 14.0 | 0.00 | 0.00 | 0.00 | 40 | 1017.6 |
| 20260503185728 | 68 | 65 | 4.0 | 16.0 | 0.00 | 0.00 | 0.00 | 42 | 1017.6 |
| 20260503185227 | 66 | 257 | 9.0 | 18.0 | 0.00 | 0.00 | 0.00 | 43 | 1017.6 |
| 20260503184728 | 66 | 197 | 9.0 | 14.0 | 0.00 | 0.00 | 0.00 | 44 | 1017.6 |
| 20260503184227 | 68 | 207 | 7.0 | 14.0 | 0.00 | 0.00 | 0.00 | 44 | 1017.6 |
| 20260503183727 | 66 | 218 | 11.0 | 18.0 | 0.00 | 0.00 | 0.00 | 43 | 1017.6 |
| 20260503183228 | 67 | 298 | 9.0 | 22.0 | 0.00 | 0.00 | 0.00 | 43 | 1017.6 |
| 20260503182727 | 66 | 13 | 9.0 | 16.0 | 0.00 | 0.00 | 0.00 | 47 | 1017.9 |
| 20260503182228 | 66 | 253 | 9.0 | 14.0 | 0.00 | 0.00 | 0.00 | 44 | 1017.9 |
| 20260503181728 | 66 | 240 | 9.0 | 16.0 | 0.00 | 0.00 | 0.00 | 48 | 1017.9 |
| 20260503181229 | 66 | 57 | 9.0 | 16.0 | 0.00 | 0.00 | 0.00 | 46 | 1017.9 |
| 20260503180729 | 65 | 63 | 7.0 | 16.0 | 0.00 | 0.00 | 0.00 | 43 | 1017.9 |
| 20260503180229 | 65 | 51 | 9.0 | 18.0 | 0.00 | 0.00 | 0.00 | 43 | 1017.9 |
| 20260503175732 | 65 | 190 | 9.0 | 18.0 | 0.00 | 0.00 | 0.00 | 42 | 1017.9 |
| 20260503175229 | 65 | 224 | 9.0 | 20.0 | 0.00 | 0.00 | 0.00 | 45 | 1017.9 |
| 20260503174728 | 64 | 221 | 13.0 | 23.0 | 0.00 | 0.00 | 0.00 | 43 | 1018.3 |
| 20260503174229 | 64 | 241 | 11.0 | 20.0 | 0.00 | 0.00 | 0.00 | 44 | 1018.3 |
| 20260503173727 | 65 | 183 | 7.0 | 16.0 | 0.00 | 0.00 | 0.00 | 49 | 1018.3 |
| 20260503173228 | 65 | 244 | 7.0 | 11.0 | 0.00 | 0.00 | 0.00 | 44 | 1018.3 |
| 20260503172728 | 63 | 225 | 7.0 | 14.0 | 0.00 | 0.00 | 0.00 | 47 | 1018.3 |
| 20260503172228 | 65 | 324 | 11.0 | 14.0 | 0.00 | 0.00 | 0.00 | 48 | 1018.3 |
| 20260503171728 | 64 | 304 | 9.0 | 16.0 | 0.00 | 0.00 | 0.00 | 46 | 1018.3 |
| 20260503171227 | 63 | 92 | 7.0 | 11.0 | 0.00 | 0.00 | 0.00 | 47 | 1018.3 |
| 20260503170728 | 63 | 104 | 7.0 | 14.0 | 0.00 | 0.00 | 0.00 | 46 | 1018.6 |
| 20260503170228 | 63 | 238 | 4.0 | 9.0 | 0.00 | 0.00 | 0.00 | 47 | 1018.6 |
| 20260503150729 | 58 | 168 | 15.0 | 22.0 | 0.00 | 0.00 | 0.00 | 49 | 1019.0 |
| 20260503150229 | 58 | 34 | 11.0 | 18.0 | 0.00 | 0.00 | 0.00 | 55 | 1019.0 |
| 20260503140229 | 54 | 32 | 9.0 | 13.0 | 0.00 | 0.00 | 0.00 | 72 | 1019.0 |
| 20260503131227 | 51 | 279 | 4.0 | 7.0 | 0.00 | 0.00 | 0.00 | 83 | 1018.6 |
| 20260503130727 | 51 | 38 | 4.0 | 11.0 | 0.00 | 0.00 | 0.00 | 84 | 1018.6 |
| 20260503130231 | 50 | 2 | 4.0 | 11.0 | 0.00 | 0.00 | 0.00 | 87 | 1018.6 |
| 20260503110729 | 44 | 239 | 0.0 | 2.0 | 0.00 | 0.00 | 0.00 | 100 | 1017.3 |
| 20260503110229 | 44 | 210 | 0.0 | 4.0 | 0.00 | 0.00 | 0.00 | 100 | 1017.3 |
| 20260503100229 | 45 | 210 | 0.0 | 0.0 | 0.00 | 0.00 | 0.00 | 100 | 1016.3 |
| 20260503090227 | 45 | 254 | 0.0 | 2.0 | 0.00 | 0.00 | 0.00 | 100 | 1015.6 |
| 20260503081228 | 45 | 220 | 0.0 | 2.0 | 0.00 | 0.00 | 0.00 | 100 | 1015.2 |
| 20260503080229 | 45 | 227 | 0.0 | 2.0 | 0.00 | 0.00 | 0.00 | 100 | 1014.9 |
| 20260503072730 | 46 | 231 | 0.0 | 0.0 | 0.00 | 0.00 | 0.00 | 100 | 1014.6 |
| 20260503072229 | 46 | 233 | 0.0 | 0.0 | 0.00 | 0.00 | 0.00 | 100 | 1014.6 |
| 20260503071730 | 47 | 228 | 0.0 | 0.0 | 0.00 | 0.00 | 0.00 | 100 | 1014.6 |
| 20260503071229 | 47 | 228 | 0.0 | 0.0 | 0.00 | 0.00 | 0.00 | 100 | 1014.6 |
| 20260503070729 | 47 | 231 | 0.0 | 0.0 | 0.00 | 0.00 | 0.00 | 100 | 1014.6 |
| 20260503070229 | 47 | 229 | 0.0 | 0.0 | 0.00 | 0.00 | 0.00 | 100 | 1014.6 |
| 20260503060228 | 48 | 218 | 0.0 | 2.0 | 0.00 | 0.00 | 0.00 | 100 | 1014.2 |
| 20260503054727 | 49 | 214 | 0.0 | 2.0 | 0.00 | 0.00 | 0.00 | 99 | 1014.2 |
| 20260503054227 | 49 | 215 | 0.0 | 0.0 | 0.00 | 0.00 | 0.00 | 100 | 1014.2 |
| 20260503053728 | 49 | 228 | 0.0 | 2.0 | 0.00 | 0.00 | 0.00 | 99 | 1014.2 |
| 20260503053228 | 49 | 217 | 0.0 | 2.0 | 0.00 | 0.00 | 0.00 | 100 | 1014.2 |
| 20260503052728 | 49 | 190 | 0.0 | 0.0 | 0.00 | 0.00 | 0.00 | 99 | 1014.2 |
| 20260503052228 | 49 | 223 | 0.0 | 0.0 | 0.00 | 0.00 | 0.00 | 99 | 1014.2 |
| 20260503051728 | 49 | 223 | 0.0 | 0.0 | 0.00 | 0.00 | 0.00 | 99 | 1014.2 |
| 20260503051229 | 50 | 210 | 0.0 | 0.0 | 0.00 | 0.00 | 0.00 | 99 | 1013.9 |
| 20260503050727 | 50 | 209 | 0.0 | 0.0 | 0.00 | 0.00 | 0.00 | 100 | 1013.9 |
| 20260503050229 | 50 | 244 | 0.0 | 0.0 | 0.00 | 0.00 | 0.00 | 100 | 1014.2 |
| 20260503045727 | 50 | 248 | 0.0 | 2.0 | 0.00 | 0.00 | 0.00 | 100 | 1013.9 |
| 20260503045227 | 50 | 255 | 0.0 | 2.0 | 0.00 | 0.00 | 0.00 | 100 | 1013.9 |
| 20260503044728 | 50 | 246 | 0.0 | 0.0 | 0.00 | 0.00 | 0.00 | 100 | 1013.9 |
| 20260503044227 | 50 | 232 | 0.0 | 2.0 | 0.00 | 0.00 | 0.00 | 100 | 1013.9 |
| 20260503043728 | 50 | 223 | 0.0 | 2.0 | 0.00 | 0.00 | 0.00 | 100 | 1013.5 |
| 20260503043230 | 50 | 260 | 0.0 | 2.0 | 0.00 | 0.00 | 0.00 | 100 | 1013.5 |
| 20260503042727 | 50 | 270 | 0.0 | 2.0 | 0.00 | 0.00 | 0.00 | 99 | 1013.5 |
| 20260503042227 | 50 | 105 | 0.0 | 4.0 | 0.00 | 0.00 | 0.00 | 100 | 1013.5 |
| 20260503041727 | 50 | 203 | 0.0 | 2.0 | 0.00 | 0.00 | 0.00 | 100 | 1013.5 |
| 20260503041227 | 51 | 235 | 0.0 | 4.0 | 0.00 | 0.00 | 0.00 | 99 | 1013.5 |
| 20260503040728 | 51 | 216 | 0.0 | 4.0 | 0.00 | 0.00 | 0.00 | 100 | 1013.2 |
| 20260503035743 | 50 | 247 | 0.0 | 4.0 | 0.00 | 0.00 | 0.50 | 99 | 1013.2 |
| 20260503035228 | 51 | 224 | 0.0 | 2.0 | 0.00 | 0.00 | 0.50 | 100 | 1013.2 |
| 20260503034727 | 51 | 227 | 0.0 | 2.0 | 0.00 | 0.00 | 0.50 | 99 | 1013.2 |
| 20260503034228 | 51 | 223 | 0.0 | 4.0 | 0.00 | 0.00 | 0.50 | 99 | 1013.2 |
| 20260503033728 | 51 | 217 | 0.0 | 5.0 | 0.00 | 0.00 | 0.50 | 99 | 1013.2 |
| 20260503033227 | 51 | 220 | 0.0 | 2.0 | 0.00 | 0.00 | 0.50 | 99 | 1013.2 |
| 20260503032728 | 51 | 273 | 0.0 | 2.0 | 0.00 | 0.00 | 0.50 | 99 | 1013.2 |
| 20260503032231 | 51 | 263 | 0.0 | 2.0 | 0.00 | 0.00 | 0.50 | 99 | 1013.2 |
| 20260503031729 | 51 | 251 | 0.0 | 0.0 | 0.00 | 0.00 | 0.50 | 99 | 1013.2 |
| 20260503031227 | 51 | 249 | 0.0 | 2.0 | 0.00 | 0.00 | 0.50 | 99 | 1013.2 |
| 20260503030728 | 51 | 289 | 0.0 | 2.0 | 0.00 | 0.00 | 0.50 | 99 | 1013.2 |
| 20260503025727 | 51 | 259 | 0.0 | 0.0 | 0.00 | 0.00 | 0.50 | 99 | 1013.2 |
| 20260503025228 | 51 | 215 | 0.0 | 2.0 | 0.00 | 0.00 | 0.50 | 99 | 1013.2 |
| 20260503024728 | 51 | 233 | 0.0 | 0.0 | 0.00 | 0.00 | 0.50 | 99 | 1013.2 |
| 20260503024228 | 51 | 261 | 0.0 | 2.0 | 0.00 | 0.00 | 0.50 | 99 | 1013.2 |
| 20260503023729 | 51 | 244 | 0.0 | 4.0 | 0.00 | 0.00 | 0.50 | 99 | 1013.2 |
| 20260503023227 | 51 | 246 | 0.0 | 0.0 | 0.00 | 0.00 | 0.50 | 99 | 1013.2 |
| 20260503022729 | 50 | 243 | 0.0 | 2.0 | 0.00 | 0.00 | 0.50 | 99 | 1012.9 |
| 20260503022228 | 50 | 87 | 0.0 | 4.0 | 0.00 | 0.00 | 0.50 | 99 | 1013.2 |
| 20260503021730 | 50 | 38 | 0.0 | 2.0 | 0.00 | 0.00 | 0.50 | 99 | 1013.2 |
| 20260503021228 | 50 | 253 | 0.0 | 2.0 | 0.00 | 0.00 | 0.50 | 99 | 1013.2 |
| 20260503020728 | 50 | 162 | 0.0 | 4.0 | 0.00 | 0.00 | 0.50 | 99 | 1012.9 |
| 20260503020229 | 50 | 28 | 2.0 | 5.0 | 0.00 | 0.00 | 0.50 | 99 | 1012.9 |
| 20260503015730 | 50 | 173 | 0.0 | 2.0 | 0.00 | 0.00 | 0.50 | 99 | 1013.2 |
| 20260503015227 | 50 | 128 | 0.0 | 4.0 | 0.00 | 0.00 | 0.50 | 99 | 1013.2 |
| 20260503014727 | 50 | 58 | 2.0 | 4.0 | 0.00 | 0.00 | 0.50 | 99 | 1013.2 |
| 20260503014227 | 50 | 2 | 2.0 | 5.0 | 0.00 | 0.00 | 0.50 | 99 | 1012.9 |
| 20260503013728 | 50 | 67 | 4.0 | 9.0 | 0.00 | 0.00 | 0.49 | 99 | 1012.9 |
| 20260503013227 | 50 | 254 | 4.0 | 5.0 | 0.00 | 0.00 | 0.49 | 99 | 1012.9 |
| 20260503012729 | 50 | 357 | 4.0 | 7.0 | 0.00 | 0.00 | 0.48 | 99 | 1012.9 |
| 20260503012228 | 51 | 70 | 2.0 | 5.0 | 0.00 | 0.00 | 0.48 | 99 | 1012.5 |
| 20260503011730 | 51 | 67 | 2.0 | 9.0 | 0.00 | 0.00 | 0.48 | 99 | 1012.5 |
| 20260503011227 | 51 | 321 | 2.0 | 5.0 | 0.00 | 0.00 | 0.48 | 99 | 1012.5 |
| 20260503010728 | 51 | 41 | 4.0 | 11.0 | 0.00 | 0.00 | 0.48 | 99 | 1012.2 |
| 20260503010229 | 51 | 286 | 4.0 | 9.0 | 0.00 | 0.00 | 0.48 | 99 | 1012.2 |
| 20260503005728 | 51 | 44 | 4.0 | 11.0 | 0.00 | 0.00 | 0.48 | 99 | 1012.2 |
| 20260503005227 | 51 | 330 | 2.0 | 5.0 | 0.00 | 0.00 | 0.48 | 99 | 1012.2 |
| 20260503004728 | 51 | 28 | 4.0 | 14.0 | 0.00 | 0.00 | 0.48 | 99 | 1012.2 |
| 20260503004227 | 51 | 49 | 4.0 | 13.0 | 0.00 | 0.00 | 0.48 | 99 | 1012.2 |
| 20260503003727 | 51 | 39 | 7.0 | 16.0 | 0.00 | 0.00 | 0.48 | 99 | 1011.9 |
| 20260503003231 | 51 | 53 | 7.0 | 13.0 | 0.00 | 0.00 | 0.48 | 99 | 1011.9 |
| 20260503002727 | 51 | 357 | 7.0 | 14.0 | 0.00 | 0.00 | 0.48 | 99 | 1011.9 |
| 20260503002227 | 51 | 1 | 9.0 | 14.0 | 0.00 | 0.00 | 0.48 | 99 | 1012.2 |
| 20260503001728 | 52 | 330 | 7.0 | 16.0 | 0.00 | 0.00 | 0.48 | 99 | 1011.9 |
| 20260503001231 | 52 | 50 | 7.0 | 16.0 | 0.00 | 0.00 | 0.48 | 99 | 1011.9 |
| 20260503000730 | 52 | 40 | 4.0 | 13.0 | 0.00 | 0.00 | 0.47 | 99 | 1011.9 |
| 20260503000230 | 52 | 90 | 7.0 | 13.0 | 0.00 | 0.00 | 0.47 | 99 | 1011.9 |
| 20260502235728 | 52 | 329 | 7.0 | 13.0 | 0.00 | 0.00 | 0.47 | 99 | 1011.5 |
| 20260502235227 | 52 | 63 | 7.0 | 11.0 | 0.00 | 0.00 | 0.47 | 99 | 1011.5 |
| 20260502234727 | 53 | 59 | 7.0 | 11.0 | 0.00 | 0.00 | 0.47 | 99 | 1011.5 |
| 20260502234227 | 53 | 82 | 7.0 | 13.0 | 0.01 | 0.00 | 0.47 | 99 | 1011.5 |
| 20260502233728 | 53 | 45 | 9.0 | 14.0 | 0.01 | 0.00 | 0.47 | 99 | 1011.5 |
| 20260502233228 | 53 | 57 | 7.0 | 14.0 | 0.01 | 0.00 | 0.47 | 99 | 1011.2 |
| 20260502232727 | 53 | 25 | 7.0 | 14.0 | 0.01 | 0.00 | 0.47 | 99 | 1011.2 |
| 20260502232227 | 53 | 9 | 7.0 | 11.0 | 0.01 | 0.00 | 0.47 | 99 | 1011.2 |
| 20260502231727 | 54 | 74 | 9.0 | 13.0 | 0.01 | 0.00 | 0.46 | 99 | 1011.2 |
| 20260502231227 | 54 | 321 | 11.0 | 22.0 | 0.01 | 0.00 | 0.46 | 99 | 1011.2 |
| 20260502230727 | 54 | 36 | 7.0 | 11.0 | 0.01 | 0.00 | 0.46 | 99 | 1010.8 |
| 20260502230227 | 55 | 254 | 9.0 | 18.0 | 0.01 | 0.00 | 0.46 | 99 | 1010.8 |
| 20260502225731 | 55 | 79 | 9.0 | 16.0 | 0.01 | 0.00 | 0.46 | 99 | 1010.8 |
| 20260502225228 | 55 | 0 | 11.0 | 20.0 | 0.01 | 0.00 | 0.46 | 99 | 1010.8 |
| 20260502224727 | 55 | 80 | 4.0 | 9.0 | 0.01 | 0.00 | 0.46 | 99 | 1010.5 |
| 20260502224227 | 55 | 346 | 2.0 | 7.0 | 0.01 | 0.00 | 0.45 | 99 | 1010.5 |
| 20260502223728 | 55 | 354 | 2.0 | 13.0 | 0.01 | 0.00 | 0.44 | 99 | 1010.5 |
| 20260502223227 | 56 | 123 | 4.0 | 13.0 | 0.00 | 0.00 | 0.43 | 99 | 1010.8 |
| 20260502222727 | 56 | 53 | 7.0 | 9.0 | 0.00 | 0.00 | 0.42 | 99 | 1010.8 |
| 20260502222228 | 56 | 35 | 4.0 | 9.0 | 0.00 | 0.00 | 0.42 | 99 | 1010.5 |
| 20260502221727 | 56 | 80 | 2.0 | 7.0 | 0.01 | 0.00 | 0.42 | 99 | 1010.8 |
| 20260502221227 | 56 | 331 | 2.0 | 7.0 | 0.01 | 0.00 | 0.42 | 99 | 1010.8 |
| 20260502220727 | 56 | 40 | 4.0 | 11.0 | 0.00 | 0.00 | 0.42 | 99 | 1010.8 |
| 20260502220227 | 56 | 45 | 2.0 | 9.0 | 0.01 | 0.00 | 0.41 | 99 | 1010.8 |
| 20260502215727 | 56 | 327 | 0.0 | 4.0 | 0.01 | 0.00 | 0.41 | 99 | 1010.8 |
| 20260502215227 | 56 | 336 | 2.0 | 5.0 | 0.01 | 0.00 | 0.40 | 99 | 1010.5 |
| 20260502214728 | 56 | 322 | 4.0 | 7.0 | 0.01 | 0.00 | 0.40 | 99 | 1010.5 |
| 20260502214228 | 56 | 332 | 4.0 | 7.0 | 0.01 | 0.00 | 0.40 | 99 | 1009.8 |
| 20260502213727 | 56 | 38 | 4.0 | 13.0 | 0.01 | 0.00 | 0.40 | 99 | 1010.2 |
| 20260502213227 | 56 | 59 | 4.0 | 13.0 | 0.01 | 0.00 | 0.40 | 99 | 1010.2 |
| 20260502212728 | 56 | 35 | 2.0 | 4.0 | 0.01 | 0.00 | 0.40 | 99 | 1010.2 |
| 20260502212227 | 56 | 341 | 4.0 | 7.0 | 0.02 | 0.00 | 0.40 | 99 | 1009.8 |
| 20260502211727 | 56 | 352 | 4.0 | 11.0 | 0.01 | 0.00 | 0.40 | 99 | 1009.5 |
| 20260502211227 | 56 | 170 | 4.0 | 9.0 | 0.01 | 0.00 | 0.39 | 99 | 1009.5 |
| 20260502210728 | 56 | 35 | 4.0 | 13.0 | 0.01 | 0.00 | 0.39 | 99 | 1009.5 |
| 20260502210227 | 56 | 14 | 4.0 | 11.0 | 0.01 | 0.00 | 0.38 | 98 | 1009.8 |
| 20260502205728 | 56 | 103 | 4.0 | 11.0 | 0.01 | 0.00 | 0.38 | 98 | 1009.8 |
| 20260502205228 | 57 | 56 | 2.0 | 11.0 | 0.01 | 0.00 | 0.37 | 99 | 1009.8 |
| 20260502204727 | 57 | 10 | 4.0 | 7.0 | 0.01 | 0.00 | 0.37 | 99 | 1009.8 |
| 20260502204227 | 56 | 94 | 7.0 | 11.0 | 0.01 | 0.00 | 0.36 | 98 | 1009.8 |
| 20260502203727 | 56 | 83 | 4.0 | 11.0 | 0.01 | 0.00 | 0.35 | 98 | 1010.2 |
| 20260502203227 | 57 | 20 | 4.0 | 11.0 | 0.01 | 0.00 | 0.34 | 98 | 1010.2 |
| 20260502202727 | 57 | 356 | 4.0 | 11.0 | 0.01 | 0.00 | 0.34 | 98 | 1010.2 |
| 20260502202227 | 57 | 40 | 4.0 | 13.0 | 0.01 | 0.00 | 0.33 | 98 | 1010.2 |
| 20260502201727 | 57 | 47 | 2.0 | 5.0 | 0.01 | 0.00 | 0.32 | 98 | 1010.2 |
| 20260502201227 | 57 | 336 | 4.0 | 11.0 | 0.01 | 0.00 | 0.32 | 98 | 1010.2 |
| 20260502200728 | 57 | 83 | 4.0 | 11.0 | 0.01 | 0.00 | 0.31 | 98 | 1010.2 |
| 20260502200227 | 57 | 42 | 7.0 | 13.0 | 0.01 | 0.00 | 0.31 | 98 | 1010.5 |
| 20260502195727 | 57 | 61 | 9.0 | 13.0 | 0.01 | 0.00 | 0.30 | 98 | 1010.5 |
| 20260502195227 | 57 | 326 | 4.0 | 9.0 | 0.01 | 0.00 | 0.30 | 98 | 1010.5 |
| 20260502194727 | 57 | 27 | 4.0 | 11.0 | 0.01 | 0.00 | 0.30 | 98 | 1010.5 |
| 20260502194228 | 57 | 358 | 4.0 | 11.0 | 0.01 | 0.00 | 0.29 | 98 | 1010.5 |
| 20260502193727 | 57 | 38 | 7.0 | 13.0 | 0.01 | 0.00 | 0.29 | 98 | 1010.5 |
| 20260502193227 | 57 | 9 | 7.0 | 13.0 | 0.01 | 0.00 | 0.28 | 98 | 1010.5 |
| 20260502192727 | 57 | 355 | 4.0 | 7.0 | 0.00 | 0.00 | 0.28 | 98 | 1010.5 |